STARLINK-1298 (45413 NORAD) Tracking and Keplerian Element Data

This shows tracking and keplerian element data for the satellite.

Feedback or suggestion? Click here.




ElementValue
Catalog45413
NameSTARLINK-1298
Epoch Orbit179
Epoch Day143.75001157
Epoch Year2020
RAAN294.9445
Inclination52.9987
Eccentricity0.0001602
Argument of Perigee44.971
Mean Anonmoly123.977
Mean Motion15.62748524
Decay Rate0.00013207
L11 45413U 20019BF 20143.75001157 .00013207 00000-0 14986-3 0 9999
L22 45413 52.9987 294.9445 0001602 44.9710 123.9770 15.62748524 1790

Live tracking and technical data element details for STARLINK-1298 (NORAD 45413). STARLINK-1298 can be tracked NOW for your location showing map with azimuth and elevation plus other details from your city location.

Track the satellite on the map from your city or location and see movement details for azimuth, elevation, latitude, longitude, range, height, and movement on the map or in text.







IsCatalogInMostPopularTable: catalog: 45413, numindb: 22
Update: records affected: 1



GetName: 45413 STARLINK-1298

Hit Count: updated at: Mon, 25 May 2020 07:19:51 GMT